Location: Gandikunta
(16.3784°N, 80.8378°E)
Time: 19:31:18
(UTC+00:00)

Tsikada Rocket - Pass Details

Date: 19 May 2025
Orbit: 958 x 1007 km, 82.9° (Epoch: 22 June)

Event Time Altitude Azimuth Distance (km) Brightness Sun altitude
Exits shadow 21:45:26 48° 329° (NNW) 1,237 4.5 -30.4°
Drops below altitude 10° 21:49:58 10° 355° (N) 2,688 6.6 -29.5°
Sets 21:52:29 0° 359° (N) 3,632 7.4 -29.0°
